This demonstration page uses our WeatherBlox Daily Observations layout. Learn more.

Left ArrowRight Arrow

47.50024, -111.30081

Hourly Observations for October 14, 2019

Temp ( °F °C ) Dew Point ( °F °C ) Humidity (%) Winds ( mph kmh ) Pressure ( in mb ) Visibility ( mi km ) Precip ( " mm )
12:53 am 00:53 Mostly Clear 41 5 29 -1.7 62 62 SSW 6 9 29.77 1008 10 16 0.00 0.00
1:53 am 01:53 Partly Cloudy 46 7.8 27 -2.8 47 47 WSW 12 19 29.76 1008 10 16 0.00 0.00
2:53 am 02:53 Cloudy 46 7.8 28 -2.2 50 50 WSW 12 19 29.76 1008 10 16 0.00 0.00
3:53 am 03:53 Mostly Cloudy 43 6.1 31 -0.6 63 63 SW 12 19 29.77 1008 10 16 0.00 0.00
4:53 am 04:53 Partly Cloudy 41 5 32 0 70 70 NW 9 15 29.80 1009 10 16 0.00 0.00
5:53 am 05:53 Mostly Cloudy 37 2.8 31 -0.6 79 79 WSW 8 13 29.84 1010 10 16 0.00 0.00
6:53 am 06:53 Cloudy with Light Rain 42 5.6 34 1.1 73 73 WSW 10 17 29.85 1011 10 16 0.00 0.00
7:53 am 07:53 Cloudy 42 5.6 33 0.6 71 71 WSW 13 20 29.87 1011 10 16 0.00 0.00
8:53 am 08:53 Cloudy 44 6.7 32 0 63 63 WSW 12 19 29.88 1012 10 16 0.00 0.00
9:53 am 09:53 Cloudy 47 8.3 31 -0.6 54 54 W 18 30 29.91 1013 10 16 0.00 0.00
10:53 am 10:53 Cloudy 49 9.4 28 -2.2 44 44 W 18 30 29.93 1013 10 16 0.00 0.00
11:53 am 11:53 Cloudy 51 10.6 25 -3.9 36 36 WNW 16 26 29.95 1014 10 16 0.00 0.00
12:08 pm 12:08 Cloudy 45 7.2 31 -0.6 58 58 N 16 26 29.96 1014 10 16 0.00 0.00
12:53 pm 12:53 Cloudy 45 7.2 31 -0.6 58 58 N 12 19 30.02 1017 10 16 0.00 0.00
1:53 pm 13:53 Mostly Cloudy 50 10 32 0 50 50 N 16 26 30.01 1016 10 16 0.00 0.00
2:53 pm 14:53 Partly Cloudy 48 8.9 32 0 54 54 N 13 20 30.04 1017 10 16 0.00 0.00
3:53 pm 15:53 Partly Cloudy 48 8.9 30 -1.1 50 50 N 9 15 30.06 1018 10 16 0.00 0.00
4:53 pm 16:53 Mostly Sunny 47 8.3 30 -1.1 52 52 N 6 9 30.09 1019 10 16 0.00 0.00
5:53 pm 17:53 Mostly Cloudy 46 7.8 30 -1.1 54 54 N 8 13 30.12 1020 10 16 0.00 0.00
6:53 pm 18:53 Partly Cloudy 40 4.4 30 -1.1 68 68 NNE 8 13 30.16 1021 10 16 0.00 0.00
7:53 pm 19:53 Cloudy 40 4.4 31 -0.6 70 70 NE 12 19 30.19 1022 10 16 0.00 0.00
8:53 pm 20:53 Cloudy 40 4.4 30 -1.1 68 68 NE 7 11 30.22 1023 10 16 0.00 0.00
9:53 pm 21:53 Cloudy 39 3.9 30 -1.1 70 70 NNE 8 13 30.23 1024 10 16 0.00 0.00
10:53 pm 22:53 Cloudy 38 3.3 30 -1.1 73 73 N 7 11 30.25 1024 10 16 0.00 0.00
11:53 pm 23:53 Cloudy 38 3.3 30 -1.1 73 73 Calm 30.27 1025 10 16 0.00 0.00

Powered by AerisWeather